Time,TemperatureF,DewpointF,PressureIn,WindDirection,WindDirectionDegrees,WindSpeedMPH,WindSpeedGustMPH,Humidity,HourlyPrecipIn,Conditions,Clouds,dailyrainin,SoftwareType,DateUTC
2013-12-20 00:01:00,32.7,30.9,29.95,NW,307,1.0,2.0,93,0.00,,,0.01,Wunderground v.1.15,2013-12-20 05:01:00,
2013-12-20 00:03:00,32.7,30.9,29.95,NW,307,0.0,2.0,93,0.00,,,0.01,Wunderground v.1.15,2013-12-20 05:03:00,
2013-12-20 00:04:00,32.7,30.9,29.95,NW,308,0.0,2.0,93,0.00,,,0.01,Wunderground v.1.15,2013-12-20 05:04:00,
2013-12-20 00:07:00,32.7,30.9,29.95,NW,307,0.0,2.0,93,0.00,,,0.01,Wunderground v.1.15,2013-12-20 05:07:00,
2013-12-20 00:11:00,32.6,30.8,29.95,NW,307,0.0,0.0,93,0.00,,,0.01,Wunderground v.1.15,2013-12-20 05:11:00,
2013-12-20 00:16:00,32.6,30.8,29.95,NW,308,0.0,0.0,93,0.00,,,0.01,Wunderground v.1.15,2013-12-20 05:16:00,
2013-12-20 00:22:00,32.6,30.8,29.94,NW,308,0.0,0.0,93,0.00,,,0.01,Wunderground v.1.15,2013-12-20 05:22:00,
2013-12-20 00:28:00,32.6,30.8,29.94,NW,308,0.0,0.0,93,0.00,,,0.01,Wunderground v.1.15,2013-12-20 05:28:00,
2013-12-20 00:33:00,32.7,30.9,29.94,NW,308,0.0,0.0,93,0.00,,,0.01,Wunderground v.1.15,2013-12-20 05:33:00,
2013-12-20 00:38:00,32.7,30.9,29.93,NW,308,0.0,1.0,93,0.00,,,0.01,Wunderground v.1.15,2013-12-20 05:38:00,
2013-12-20 00:40:00,32.7,30.9,29.93,NW,308,0.0,0.0,93,0.00,,,0.01,Wunderground v.1.15,2013-12-20 05:40:00,
2013-12-20 00:45:00,32.8,31.0,29.93,NW,307,1.0,4.0,93,0.00,,,0.01,Wunderground v.1.15,2013-12-20 05:45:00,
2013-12-20 00:49:00,32.9,31.4,29.93,NW,307,1.0,1.0,94,0.00,,,0.01,Wunderground v.1.15,2013-12-20 05:49:00,
2013-12-20 00:54:00,33.0,31.5,29.93,NW,306,1.0,3.0,94,0.00,,,0.01,Wunderground v.1.15,2013-12-20 05:54:00,
2013-12-20 01:00:00,33.0,31.5,29.92,SE,134,1.0,2.0,94,0.00,,,0.01,Wunderground v.1.15,2013-12-20 06:00:00,
2013-12-20 01:05:00,33.1,31.3,29.92,SE,138,2.0,4.0,93,0.00,,,0.01,Wunderground v.1.15,2013-12-20 06:05:00,
2013-12-20 01:10:00,33.1,31.6,29.92,SE,138,2.0,4.0,94,0.00,,,0.02,Wunderground v.1.15,2013-12-20 06:10:00,
2013-12-20 01:15:00,33.1,31.6,29.91,SE,138,2.0,4.0,94,0.00,,,0.02,Wunderground v.1.15,2013-12-20 06:15:00,
2013-12-20 01:21:00,33.1,31.6,29.91,SE,138,2.0,3.0,94,0.00,,,0.02,Wunderground v.1.15,2013-12-20 06:21:00,
2013-12-20 01:26:00,33.1,31.6,29.90,SE,139,1.0,3.0,94,0.00,,,0.02,Wunderground v.1.15,2013-12-20 06:26:00,
2013-12-20 01:32:00,33.0,31.5,29.90,SE,140,1.0,4.0,94,0.00,,,0.02,Wunderground v.1.15,2013-12-20 06:32:00,
2013-12-20 01:38:00,33.0,31.5,29.91,SE,140,1.0,4.0,94,0.00,,,0.02,Wunderground v.1.15,2013-12-20 06:38:00,
2013-12-20 01:43:00,33.0,31.5,29.91,SE,140,1.0,2.0,94,0.00,,,0.02,Wunderground v.1.15,2013-12-20 06:43:00,
2013-12-20 01:50:00,33.0,31.5,29.90,SE,140,1.0,3.0,94,0.00,,,0.02,Wunderground v.1.15,2013-12-20 06:50:00,
2013-12-20 01:55:00,33.0,31.5,29.90,SE,140,1.0,4.0,94,0.00,,,0.02,Wunderground v.1.15,2013-12-20 06:55:00,
2013-12-20 02:00:00,32.9,31.4,29.90,SE,140,1.0,1.0,94,0.00,,,0.03,Wunderground v.1.15,2013-12-20 07:00:00,
2013-12-20 02:06:00,32.9,31.4,29.90,SE,140,0.0,1.0,94,0.00,,,0.03,Wunderground v.1.15,2013-12-20 07:06:00,
2013-12-20 02:11:00,32.9,31.4,29.89,SE,140,0.0,0.0,94,0.00,,,0.03,Wunderground v.1.15,2013-12-20 07:11:00,
2013-12-20 02:16:00,32.9,31.4,29.89,SE,140,0.0,2.0,94,0.00,,,0.03,Wunderground v.1.15,2013-12-20 07:16:00,
2013-12-20 02:22:00,32.8,31.3,29.89,SE,140,0.0,1.0,94,0.00,,,0.03,Wunderground v.1.15,2013-12-20 07:22:00,
2013-12-20 02:28:00,32.8,31.3,29.89,SE,140,0.0,3.0,94,0.00,,,0.03,Wunderground v.1.15,2013-12-20 07:28:00,
2013-12-20 02:33:00,32.8,31.3,29.89,SE,140,0.0,2.0,94,0.00,,,0.03,Wunderground v.1.15,2013-12-20 07:33:00,
2013-12-20 02:39:00,32.8,31.3,29.89,SE,140,0.0,0.0,94,0.00,,,0.03,Wunderground v.1.15,2013-12-20 07:39:00,
2013-12-20 02:44:00,32.8,31.3,29.89,SE,140,0.0,2.0,94,0.00,,,0.04,Wunderground v.1.15,2013-12-20 07:44:00,
2013-12-20 02:49:00,32.8,31.3,29.89,SE,140,0.0,0.0,94,0.00,,,0.04,Wunderground v.1.15,2013-12-20 07:49:00,
2013-12-20 02:54:00,32.8,31.3,29.89,SE,140,0.0,0.0,94,0.00,,,0.04,Wunderground v.1.15,2013-12-20 07:54:00,
2013-12-20 03:00:00,32.8,31.3,29.89,SE,140,0.0,0.0,94,0.00,,,0.04,Wunderground v.1.15,2013-12-20 08:00:00,
2013-12-20 03:06:00,32.8,31.3,29.89,SE,140,0.0,0.0,94,0.00,,,0.04,Wunderground v.1.15,2013-12-20 08:06:00,
2013-12-20 03:12:00,32.8,31.3,29.88,SE,140,0.0,3.0,94,0.00,,,0.04,Wunderground v.1.15,2013-12-20 08:12:00,
2013-12-20 03:17:00,32.8,31.3,29.89,SE,139,0.0,3.0,94,0.00,,,0.04,Wunderground v.1.15,2013-12-20 08:17:00,
2013-12-20 03:23:00,32.8,31.3,29.89,SE,139,0.0,0.0,94,0.00,,,0.05,Wunderground v.1.15,2013-12-20 08:23:00,
2013-12-20 03:28:00,32.8,31.3,29.89,SE,139,0.0,0.0,94,0.00,,,0.05,Wunderground v.1.15,2013-12-20 08:28:00,
2013-12-20 03:33:00,32.8,31.3,29.88,SE,139,0.0,0.0,94,0.00,,,0.05,Wunderground v.1.15,2013-12-20 08:33:00,
2013-12-20 03:39:00,32.8,31.3,29.88,SE,139,0.0,0.0,94,0.00,,,0.05,Wunderground v.1.15,2013-12-20 08:39:00,
2013-12-20 03:44:00,32.8,31.3,29.88,SE,138,0.0,0.0,94,0.00,,,0.05,Wunderground v.1.15,2013-12-20 08:44:00,
2013-12-20 03:50:00,32.8,31.3,29.88,SE,139,0.0,0.0,94,0.00,,,0.05,Wunderground v.1.15,2013-12-20 08:50:00,
2013-12-20 03:55:00,32.7,31.2,29.88,SE,139,0.0,0.0,94,0.00,,,0.05,Wunderground v.1.15,2013-12-20 08:55:00,
2013-12-20 04:01:00,32.7,31.2,29.88,SE,139,0.0,0.0,94,0.00,,,0.05,Wunderground v.1.15,2013-12-20 09:01:00,
2013-12-20 04:06:00,32.7,31.2,29.88,SE,139,0.0,0.0,94,0.00,,,0.05,Wunderground v.1.15,2013-12-20 09:06:00,
2013-12-20 04:11:00,32.7,31.2,29.88,SE,138,0.0,0.0,94,0.00,,,0.05,Wunderground v.1.15,2013-12-20 09:11:00,
2013-12-20 04:17:00,32.7,31.2,29.87,SE,139,0.0,0.0,94,0.00,,,0.05,Wunderground v.1.15,2013-12-20 09:17:00,
2013-12-20 04:23:00,32.7,31.2,29.86,SE,138,0.0,0.0,94,0.00,,,0.06,Wunderground v.1.15,2013-12-20 09:23:00,
2013-12-20 04:29:00,32.7,31.2,29.86,SE,139,0.0,0.0,94,0.00,,,0.06,Wunderground v.1.15,2013-12-20 09:29:00,
2013-12-20 04:34:00,32.7,31.2,29.86,SE,138,0.0,2.0,94,0.00,,,0.06,Wunderground v.1.15,2013-12-20 09:34:00,
2013-12-20 04:39:00,32.7,31.2,29.86,SE,140,0.0,0.0,94,0.00,,,0.06,Wunderground v.1.15,2013-12-20 09:39:00,
2013-12-20 04:44:00,32.7,31.2,29.85,SE,140,1.0,1.0,94,0.00,,,0.06,Wunderground v.1.15,2013-12-20 09:44:00,
2013-12-20 04:50:00,32.7,31.2,29.85,SE,140,0.0,0.0,94,0.00,,,0.06,Wunderground v.1.15,2013-12-20 09:50:00,
2013-12-20 04:55:00,32.7,31.2,29.85,SE,140,0.0,0.0,94,0.00,,,0.06,Wunderground v.1.15,2013-12-20 09:55:00,
2013-12-20 05:01:00,32.7,31.2,29.85,SE,140,0.0,0.0,94,0.00,,,0.07,Wunderground v.1.15,2013-12-20 10:01:00,
2013-12-20 05:06:00,32.7,31.2,29.84,SE,140,0.0,1.0,94,0.00,,,0.07,Wunderground v.1.15,2013-12-20 10:06:00,
2013-12-20 05:13:00,32.7,31.2,29.84,SE,140,0.0,0.0,94,0.00,,,0.07,Wunderground v.1.15,2013-12-20 10:13:00,
2013-12-20 05:19:00,32.8,31.3,29.84,SE,140,0.0,0.0,94,0.00,,,0.07,Wunderground v.1.15,2013-12-20 10:19:00,
2013-12-20 05:24:00,32.8,31.3,29.84,SE,140,0.0,0.0,94,0.00,,,0.07,Wunderground v.1.15,2013-12-20 10:24:00,
2013-12-20 05:29:00,32.8,31.3,29.84,SE,140,0.0,0.0,94,0.00,,,0.07,Wunderground v.1.15,2013-12-20 10:29:00,
2013-12-20 05:34:00,32.8,31.3,29.84,SE,140,0.0,0.0,94,0.00,,,0.07,Wunderground v.1.15,2013-12-20 10:34:00,
2013-12-20 05:40:00,32.8,31.3,29.84,SE,140,0.0,0.0,94,0.00,,,0.07,Wunderground v.1.15,2013-12-20 10:40:00,
2013-12-20 05:45:00,32.8,31.3,29.84,SE,140,0.0,0.0,94,0.00,,,0.07,Wunderground v.1.15,2013-12-20 10:45:00,
2013-12-20 05:51:00,32.9,31.6,29.84,SE,140,0.0,0.0,95,0.00,,,0.07,Wunderground v.1.15,2013-12-20 10:51:00,
2013-12-20 05:56:00,32.9,31.4,29.83,SE,140,0.0,0.0,94,0.00,,,0.07,Wunderground v.1.15,2013-12-20 10:56:00,
2013-12-20 06:02:00,32.9,31.6,29.82,SE,140,0.0,0.0,95,0.00,,,0.07,Wunderground v.1.15,2013-12-20 11:02:00,
2013-12-20 06:08:00,32.9,31.6,29.82,SE,140,0.0,0.0,95,0.00,,,0.07,Wunderground v.1.15,2013-12-20 11:08:00,
2013-12-20 06:13:00,32.9,31.6,29.82,SE,140,0.0,0.0,95,0.00,,,0.07,Wunderground v.1.15,2013-12-20 11:13:00,
2013-12-20 06:19:00,32.9,31.6,29.83,SE,140,0.0,0.0,95,0.00,,,0.07,Wunderground v.1.15,2013-12-20 11:19:00,
2013-12-20 06:24:00,32.9,31.6,29.83,SE,140,0.0,0.0,95,0.00,,,0.07,Wunderground v.1.15,2013-12-20 11:24:00,
2013-12-20 06:29:00,32.9,31.6,29.83,SE,140,0.0,0.0,95,0.00,,,0.07,Wunderground v.1.15,2013-12-20 11:29:00,
2013-12-20 06:34:00,32.9,31.6,29.83,SE,140,0.0,0.0,95,0.00,,,0.07,Wunderground v.1.15,2013-12-20 11:34:00,
2013-12-20 06:40:00,32.9,31.6,29.83,SE,140,0.0,0.0,95,0.00,,,0.07,Wunderground v.1.15,2013-12-20 11:40:00,
2013-12-20 06:45:00,33.0,31.7,29.83,SE,140,0.0,0.0,95,0.00,,,0.07,Wunderground v.1.15,2013-12-20 11:45:00,
2013-12-20 06:51:00,32.9,31.6,29.83,SE,140,0.0,0.0,95,0.00,,,0.08,Wunderground v.1.15,2013-12-20 11:51:00,
2013-12-20 06:56:00,32.9,31.6,29.83,SE,140,0.0,0.0,95,0.00,,,0.08,Wunderground v.1.15,2013-12-20 11:56:00,
2013-12-20 07:02:00,32.9,31.6,29.83,SE,140,0.0,0.0,95,0.00,,,0.08,Wunderground v.1.15,2013-12-20 12:02:00,
2013-12-20 07:08:00,32.9,31.6,29.83,SE,140,0.0,0.0,95,0.00,,,0.08,Wunderground v.1.15,2013-12-20 12:08:00,
2013-12-20 07:13:00,32.9,31.6,29.83,SE,140,0.0,0.0,95,0.00,,,0.08,Wunderground v.1.15,2013-12-20 12:13:00,
2013-12-20 07:19:00,32.9,31.6,29.83,SE,140,0.0,0.0,95,0.00,,,0.08,Wunderground v.1.15,2013-12-20 12:19:00,
2013-12-20 07:24:00,32.9,31.6,29.83,SE,140,0.0,0.0,95,0.00,,,0.08,Wunderground v.1.15,2013-12-20 12:24:00,
2013-12-20 07:30:00,32.9,31.6,29.83,SE,140,0.0,0.0,95,0.00,,,0.09,Wunderground v.1.15,2013-12-20 12:30:00,
2013-12-20 07:35:00,32.9,31.6,29.83,SE,137,0.0,2.0,95,0.00,,,0.09,Wunderground v.1.15,2013-12-20 12:35:00,
2013-12-20 07:41:00,32.9,31.6,29.83,East,79,1.0,3.0,95,0.00,,,0.09,Wunderground v.1.15,2013-12-20 12:41:00,
2013-12-20 07:46:00,32.9,31.6,29.83,NE,38,2.0,5.0,95,0.00,,,0.09,Wunderground v.1.15,2013-12-20 12:46:00,
2013-12-20 07:52:00,32.8,31.5,29.84,NNE,26,2.0,2.0,95,0.00,,,0.09,Wunderground v.1.15,2013-12-20 12:52:00,
2013-12-20 07:58:00,32.7,31.4,29.84,NNE,25,2.0,3.0,95,0.00,,,0.09,Wunderground v.1.15,2013-12-20 12:58:00,
2013-12-20 08:03:00,32.6,31.3,29.84,NNE,23,2.0,6.0,95,0.00,,,0.09,Wunderground v.1.15,2013-12-20 13:03:00,
2013-12-20 08:10:00,32.6,31.3,29.84,NNE,23,2.0,2.0,95,0.00,,,0.09,Wunderground v.1.15,2013-12-20 13:10:00,
2013-12-20 08:15:00,32.5,31.2,29.84,NNE,22,1.0,3.0,95,0.00,,,0.09,Wunderground v.1.15,2013-12-20 13:15:00,
2013-12-20 08:21:00,32.5,31.2,29.84,NNE,23,1.0,1.0,95,0.00,,,0.10,Wunderground v.1.15,2013-12-20 13:21:00,
2013-12-20 08:26:00,32.5,31.2,29.84,NE,42,1.0,2.0,95,0.00,,,0.10,Wunderground v.1.15,2013-12-20 13:26:00,
2013-12-20 08:33:00,32.5,31.2,29.85,NE,42,1.0,2.0,95,0.00,,,0.10,Wunderground v.1.15,2013-12-20 13:33:00,
2013-12-20 08:39:00,32.4,31.1,29.85,NE,48,1.0,3.0,95,0.00,,,0.10,Wunderground v.1.15,2013-12-20 13:39:00,
2013-12-20 08:44:00,32.4,31.1,29.85,NE,48,1.0,2.0,95,0.00,,,0.10,Wunderground v.1.15,2013-12-20 13:44:00,
2013-12-20 08:49:00,32.4,31.1,29.85,NE,48,1.0,1.0,95,0.00,,,0.10,Wunderground v.1.15,2013-12-20 13:49:00,
2013-12-20 08:54:00,32.4,31.1,29.85,NE,48,0.0,1.0,95,0.00,,,0.10,Wunderground v.1.15,2013-12-20 13:54:00,
2013-12-20 09:00:00,32.4,31.1,29.86,NE,48,0.0,0.0,95,0.00,,,0.10,Wunderground v.1.15,2013-12-20 14:00:00,
2013-12-20 09:05:00,32.4,31.1,29.86,NE,48,0.0,0.0,95,0.00,,,0.10,Wunderground v.1.15,2013-12-20 14:05:00,
2013-12-20 09:11:00,32.4,31.1,29.86,NE,38,2.0,3.0,95,0.00,,,0.10,Wunderground v.1.15,2013-12-20 14:11:00,
2013-12-20 09:16:00,32.4,31.1,29.86,NNE,32,2.0,4.0,95,0.00,,,0.10,Wunderground v.1.15,2013-12-20 14:16:00,
2013-12-20 09:23:00,32.4,31.1,29.86,NNE,32,2.0,4.0,95,0.00,,,0.10,Wunderground v.1.15,2013-12-20 14:23:00,
2013-12-20 09:29:00,32.4,31.1,29.86,NNE,33,1.0,4.0,95,0.00,,,0.10,Wunderground v.1.15,2013-12-20 14:29:00,
2013-12-20 09:34:00,32.4,31.1,29.86,NE,46,1.0,7.0,95,0.00,,,0.11,Wunderground v.1.15,2013-12-20 14:34:00,
2013-12-20 09:39:00,32.4,31.1,29.86,NE,44,2.0,2.0,95,0.00,,,0.11,Wunderground v.1.15,2013-12-20 14:39:00,
2013-12-20 09:44:00,32.3,31.0,29.87,NE,44,2.0,3.0,95,0.00,,,0.11,Wunderground v.1.15,2013-12-20 14:44:00,
2013-12-20 09:50:00,32.3,31.0,29.87,NE,42,2.0,3.0,95,0.00,,,0.11,Wunderground v.1.15,2013-12-20 14:50:00,
2013-12-20 09:55:00,32.3,31.0,29.87,NE,42,2.0,4.0,95,0.00,,,0.11,Wunderground v.1.15,2013-12-20 14:55:00,
2013-12-20 10:01:00,32.4,31.1,29.87,NE,42,1.0,2.0,95,0.00,,,0.11,Wunderground v.1.15,2013-12-20 15:01:00,
2013-12-20 10:06:00,32.4,31.1,29.88,NE,42,1.0,3.0,95,0.00,,,0.11,Wunderground v.1.15,2013-12-20 15:06:00,
2013-12-20 10:12:00,32.4,31.1,29.87,ENE,59,2.0,5.0,95,0.00,,,0.11,Wunderground v.1.15,2013-12-20 15:12:00,
2013-12-20 10:18:00,32.5,31.2,29.87,ENE,74,2.0,5.0,95,0.00,,,0.11,Wunderground v.1.15,2013-12-20 15:18:00,
2013-12-20 10:23:00,32.5,31.2,29.86,East,84,0.0,2.0,95,0.00,,,0.11,Wunderground v.1.15,2013-12-20 15:23:00,
2013-12-20 10:29:00,32.7,31.4,29.86,SE,126,1.0,2.0,95,0.00,,,0.11,Wunderground v.1.15,2013-12-20 15:29:00,
2013-12-20 10:34:00,32.8,31.5,29.87,ENE,66,1.0,2.0,95,0.00,,,0.11,Wunderground v.1.15,2013-12-20 15:34:00,
2013-12-20 10:39:00,32.8,31.5,29.86,ENE,68,1.0,1.0,95,0.00,,,0.12,Wunderground v.1.15,2013-12-20 15:39:00,
2013-12-20 10:45:00,32.9,31.6,29.87,ENE,70,1.0,1.0,95,0.00,,,0.12,Wunderground v.1.15,2013-12-20 15:45:00,
2013-12-20 10:50:00,33.0,31.7,29.86,ENE,70,0.0,0.0,95,0.00,,,0.12,Wunderground v.1.15,2013-12-20 15:50:00,
2013-12-20 10:55:00,33.2,31.9,29.87,ENE,76,0.0,3.0,95,0.00,,,0.12,Wunderground v.1.15,2013-12-20 15:55:00,
2013-12-20 11:01:00,33.2,31.9,29.87,ENE,69,1.0,1.0,95,0.00,,,0.12,Wunderground v.1.15,2013-12-20 16:01:00,
2013-12-20 11:06:00,33.2,31.9,29.87,ENE,70,1.0,1.0,95,0.00,,,0.12,Wunderground v.1.15,2013-12-20 16:06:00,
2013-12-20 11:13:00,33.1,31.8,29.88,NE,55,1.0,1.0,95,0.00,,,0.12,Wunderground v.1.15,2013-12-20 16:13:00,
2013-12-20 11:18:00,33.0,31.7,29.87,NE,55,1.0,2.0,95,0.00,,,0.12,Wunderground v.1.15,2013-12-20 16:18:00,
2013-12-20 11:23:00,33.0,31.7,29.87,NE,55,1.0,3.0,95,0.00,,,0.12,Wunderground v.1.15,2013-12-20 16:23:00,
2013-12-20 11:29:00,33.1,31.8,29.87,NE,55,0.0,0.0,95,0.00,,,0.12,Wunderground v.1.15,2013-12-20 16:29:00,
2013-12-20 11:34:00,33.1,31.8,29.87,NE,56,0.0,2.0,95,0.00,,,0.12,Wunderground v.1.15,2013-12-20 16:34:00,
2013-12-20 11:40:00,33.1,31.8,29.87,NE,56,1.0,1.0,95,0.00,,,0.12,Wunderground v.1.15,2013-12-20 16:40:00,
2013-12-20 11:45:00,33.1,31.8,29.87,NE,56,0.0,1.0,95,0.00,,,0.12,Wunderground v.1.15,2013-12-20 16:45:00,
2013-12-20 11:51:00,33.2,31.9,29.87,NE,56,0.0,0.0,95,0.00,,,0.12,Wunderground v.1.15,2013-12-20 16:51:00,
2013-12-20 11:57:00,33.2,31.9,29.86,NE,56,0.0,3.0,95,0.00,,,0.12,Wunderground v.1.15,2013-12-20 16:57:00,
2013-12-20 12:03:00,33.2,31.9,29.86,ENE,69,0.0,1.0,95,0.00,,,0.13,Wunderground v.1.15,2013-12-20 17:03:00,
2013-12-20 12:08:00,33.3,32.0,29.86,ENE,68,0.0,1.0,95,0.00,,,0.13,Wunderground v.1.15,2013-12-20 17:08:00,
2013-12-20 12:13:00,33.3,32.0,29.86,ENE,62,0.0,4.0,95,0.00,,,0.13,Wunderground v.1.15,2013-12-20 17:13:00,
2013-12-20 12:19:00,33.3,32.0,29.85,ENE,61,0.0,0.0,95,0.00,,,0.13,Wunderground v.1.15,2013-12-20 17:19:00,
2013-12-20 12:24:00,33.3,32.0,29.85,ENE,61,0.0,0.0,95,0.00,,,0.13,Wunderground v.1.15,2013-12-20 17:24:00,
2013-12-20 12:30:00,33.4,32.1,29.84,ENE,63,0.0,0.0,95,0.00,,,0.13,Wunderground v.1.15,2013-12-20 17:30:00,
2013-12-20 12:37:00,33.4,32.1,29.84,ENE,62,0.0,0.0,95,0.00,,,0.13,Wunderground v.1.15,2013-12-20 17:37:00,
2013-12-20 12:43:00,33.4,32.1,29.84,ENE,61,0.0,3.0,95,0.00,,,0.13,Wunderground v.1.15,2013-12-20 17:43:00,
2013-12-20 12:48:00,33.4,32.1,29.83,ENE,62,0.0,3.0,95,0.00,,,0.13,Wunderground v.1.15,2013-12-20 17:48:00,
2013-12-20 12:54:00,33.4,32.1,29.83,ENE,63,0.0,1.0,95,0.00,,,0.13,Wunderground v.1.15,2013-12-20 17:54:00,
2013-12-20 13:00:00,33.4,32.1,29.83,ENE,63,0.0,0.0,95,0.00,,,0.14,Wunderground v.1.15,2013-12-20 18:00:00,
2013-12-20 13:05:00,33.4,32.1,29.83,ESE,102,0.0,0.0,95,0.00,,,0.14,Wunderground v.1.15,2013-12-20 18:05:00,
2013-12-20 13:11:00,33.5,32.2,29.82,East,101,0.0,2.0,95,0.00,,,0.14,Wunderground v.1.15,2013-12-20 18:11:00,
2013-12-20 13:16:00,33.7,32.4,29.82,ENE,72,0.0,3.0,95,0.00,,,0.14,Wunderground v.1.15,2013-12-20 18:16:00,
2013-12-20 13:22:00,33.8,32.5,29.82,SE,136,0.0,1.0,95,0.00,,,0.15,Wunderground v.1.15,2013-12-20 18:22:00,
2013-12-20 13:27:00,33.8,32.5,29.82,East,84,1.0,3.0,95,0.00,,,0.15,Wunderground v.1.15,2013-12-20 18:27:00,
2013-12-20 13:33:00,33.7,32.4,29.83,East,84,0.0,3.0,95,0.00,,,0.15,Wunderground v.1.15,2013-12-20 18:33:00,
2013-12-20 13:38:00,33.7,32.4,29.82,ESE,105,0.0,3.0,95,0.00,,,0.15,Wunderground v.1.15,2013-12-20 18:38:00,
2013-12-20 13:43:00,33.7,32.4,29.82,East,99,0.0,0.0,95,0.00,,,0.15,Wunderground v.1.15,2013-12-20 18:43:00,
2013-12-20 13:48:00,33.7,32.4,29.82,East,98,0.0,1.0,95,0.00,,,0.15,Wunderground v.1.15,2013-12-20 18:48:00,
2013-12-20 13:54:00,33.7,32.4,29.81,East,98,0.0,0.0,95,0.00,,,0.15,Wunderground v.1.15,2013-12-20 18:54:00,
2013-12-20 13:59:00,33.7,32.4,29.81,East,98,0.0,0.0,95,0.00,,,0.15,Wunderground v.1.15,2013-12-20 18:59:00,
2013-12-20 14:04:00,33.6,32.3,29.81,East,91,0.0,0.0,95,0.00,,,0.15,Wunderground v.1.15,2013-12-20 19:04:00,
2013-12-20 14:10:00,33.5,32.2,29.81,SE,126,0.0,0.0,95,0.00,,,0.15,Wunderground v.1.15,2013-12-20 19:10:00,
2013-12-20 14:16:00,33.5,32.2,29.80,ESE,103,0.0,0.0,95,0.00,,,0.15,Wunderground v.1.15,2013-12-20 19:16:00,
2013-12-20 14:23:00,33.5,32.2,29.80,SE,129,0.0,2.0,95,0.00,,,0.15,Wunderground v.1.15,2013-12-20 19:23:00,
2013-12-20 14:28:00,33.4,32.1,29.80,ENE,67,1.0,2.0,95,0.00,,,0.15,Wunderground v.1.15,2013-12-20 19:28:00,
2013-12-20 14:34:00,33.5,32.2,29.81,ENE,67,0.0,2.0,95,0.00,,,0.16,Wunderground v.1.15,2013-12-20 19:34:00,
2013-12-20 14:35:00,33.5,32.2,29.81,ENE,67,0.0,2.0,95,0.00,,,0.16,Wunderground v.1.15,2013-12-20 19:35:00,
2013-12-20 14:41:00,33.4,32.1,29.81,ENE,67,1.0,3.0,95,0.00,,,0.16,Wunderground v.1.15,2013-12-20 19:41:00,
2013-12-20 14:47:00,33.4,32.1,29.81,ENE,67,0.0,3.0,95,0.06,,,0.17,Wunderground v.1.15,2013-12-20 19:47:00,
2013-12-20 14:52:00,33.4,32.1,29.81,ENE,67,0.0,1.0,95,0.15,,,0.19,Wunderground v.1.15,2013-12-20 19:52:00,
2013-12-20 14:58:00,33.4,32.1,29.81,ENE,73,0.0,1.0,95,0.09,,,0.19,Wunderground v.1.15,2013-12-20 19:58:00,
2013-12-20 15:03:00,33.5,32.2,29.79,ENE,73,0.0,0.0,95,0.06,,,0.20,Wunderground v.1.15,2013-12-20 20:03:00,
2013-12-20 15:08:00,33.6,32.3,29.80,East,89,0.0,2.0,95,0.06,,,0.20,Wunderground v.1.15,2013-12-20 20:08:00,
2013-12-20 15:13:00,33.5,32.2,29.81,East,88,0.0,0.0,95,0.05,,,0.20,Wunderground v.1.15,2013-12-20 20:13:00,
2013-12-20 15:19:00,33.4,32.1,29.80,ENE,69,0.0,0.0,95,0.00,,,0.20,Wunderground v.1.15,2013-12-20 20:19:00,
2013-12-20 15:25:00,33.4,32.1,29.81,ENE,63,1.0,4.0,95,0.00,,,0.20,Wunderground v.1.15,2013-12-20 20:25:00,
2013-12-20 15:31:00,33.3,32.0,29.82,NE,37,2.0,2.0,95,0.00,,,0.21,Wunderground v.1.15,2013-12-20 20:31:00,
2013-12-20 15:36:00,33.3,32.0,29.82,NE,40,2.0,4.0,95,0.00,,,0.21,Wunderground v.1.15,2013-12-20 20:36:00,
2013-12-20 15:41:00,33.2,31.9,29.83,NE,40,1.0,1.0,95,0.00,,,0.21,Wunderground v.1.15,2013-12-20 20:41:00,
2013-12-20 15:47:00,33.2,31.9,29.82,NE,40,0.0,2.0,95,0.05,,,0.22,Wunderground v.1.15,2013-12-20 20:47:00,
2013-12-20 15:52:00,33.2,31.9,29.81,NE,41,0.0,0.0,95,0.11,,,0.23,Wunderground v.1.15,2013-12-20 20:52:00,
2013-12-20 15:57:00,33.2,31.9,29.82,NE,41,0.0,0.0,95,0.08,,,0.23,Wunderground v.1.15,2013-12-20 20:57:00,
2013-12-20 16:02:00,33.2,31.9,29.82,NE,42,0.0,0.0,95,0.05,,,0.23,Wunderground v.1.15,2013-12-20 21:02:00,
2013-12-20 16:08:00,33.2,31.9,29.81,ENE,59,0.0,2.0,95,0.00,,,0.23,Wunderground v.1.15,2013-12-20 21:08:00,
2013-12-20 16:13:00,33.2,31.9,29.82,ENE,59,0.0,2.0,95,0.00,,,0.23,Wunderground v.1.15,2013-12-20 21:13:00,
2013-12-20 16:19:00,33.2,31.9,29.82,ENE,58,0.0,2.0,95,0.00,,,0.23,Wunderground v.1.15,2013-12-20 21:19:00,
2013-12-20 16:24:00,33.1,31.8,29.81,ENE,60,1.0,3.0,95,0.00,,,0.23,Wunderground v.1.15,2013-12-20 21:24:00,
2013-12-20 16:30:00,33.0,31.7,29.81,East,96,1.0,1.0,95,0.00,,,0.23,Wunderground v.1.15,2013-12-20 21:30:00,
2013-12-20 16:35:00,33.0,31.7,29.81,East,96,0.0,1.0,95,0.00,,,0.23,Wunderground v.1.15,2013-12-20 21:35:00,
2013-12-20 16:40:00,32.9,31.6,29.80,ESE,121,0.0,0.0,95,0.00,,,0.23,Wunderground v.1.15,2013-12-20 21:40:00,
2013-12-20 16:46:00,32.9,31.6,29.81,ESE,121,0.0,0.0,95,0.00,,,0.23,Wunderground v.1.15,2013-12-20 21:46:00,
2013-12-20 16:52:00,32.8,31.5,29.80,East,98,0.0,2.0,95,0.00,,,0.23,Wunderground v.1.15,2013-12-20 21:52:00,
2013-12-20 16:58:00,32.8,31.5,29.80,SE,125,1.0,5.0,95,0.00,,,0.23,Wunderground v.1.15,2013-12-20 21:58:00,
2013-12-20 17:04:00,32.7,31.4,29.81,ESE,107,1.0,1.0,95,0.00,,,0.23,Wunderground v.1.15,2013-12-20 22:04:00,
2013-12-20 17:10:00,32.7,31.4,29.81,East,91,0.0,2.0,95,0.00,,,0.23,Wunderground v.1.15,2013-12-20 22:10:00,
2013-12-20 17:15:00,32.7,31.4,29.82,East,82,0.0,2.0,95,0.00,,,0.24,Wunderground v.1.15,2013-12-20 22:15:00,
2013-12-20 17:20:00,32.7,31.4,29.81,ENE,68,0.0,0.0,95,0.41,,,0.27,Wunderground v.1.15,2013-12-20 22:20:00,
2013-12-20 17:25:00,32.7,31.4,29.80,ENE,68,0.0,2.0,95,0.10,,,0.27,Wunderground v.1.15,2013-12-20 22:25:00,
2013-12-20 17:31:00,32.6,31.3,29.81,NE,56,0.0,0.0,95,0.06,,,0.28,Wunderground v.1.15,2013-12-20 22:31:00,
2013-12-20 17:36:00,32.6,31.3,29.81,ENE,78,1.0,1.0,95,0.06,,,0.28,Wunderground v.1.15,2013-12-20 22:36:00,
2013-12-20 17:42:00,32.6,31.3,29.81,ENE,78,0.0,1.0,95,0.04,,,0.28,Wunderground v.1.15,2013-12-20 22:42:00,
2013-12-20 17:48:00,32.6,31.3,29.81,ENE,78,0.0,2.0,95,0.00,,,0.28,Wunderground v.1.15,2013-12-20 22:48:00,
2013-12-20 17:53:00,32.6,31.3,29.81,ENE,78,0.0,0.0,95,0.00,,,0.28,Wunderground v.1.15,2013-12-20 22:53:00,
2013-12-20 17:59:00,32.6,31.3,29.82,ENE,67,1.0,1.0,95,0.00,,,0.29,Wunderground v.1.15,2013-12-20 22:59:00,
2013-12-20 18:05:00,32.6,31.3,29.82,NE,52,2.0,3.0,95,0.00,,,0.29,Wunderground v.1.15,2013-12-20 23:05:00,
2013-12-20 18:10:00,32.5,31.2,29.82,NE,45,1.0,3.0,95,0.00,,,0.29,Wunderground v.1.15,2013-12-20 23:10:00,
2013-12-20 18:16:00,32.5,31.2,29.82,NE,45,1.0,4.0,95,0.00,,,0.29,Wunderground v.1.15,2013-12-20 23:16:00,
2013-12-20 18:21:00,32.5,31.2,29.82,NE,42,0.0,1.0,95,0.00,,,0.29,Wunderground v.1.15,2013-12-20 23:21:00,
2013-12-20 18:26:00,32.5,31.2,29.81,ENE,68,0.0,1.0,95,0.00,,,0.29,Wunderground v.1.15,2013-12-20 23:26:00,
2013-12-20 18:32:00,32.4,31.1,29.82,ENE,68,0.0,2.0,95,0.00,,,0.29,Wunderground v.1.15,2013-12-20 23:32:00,
2013-12-20 18:38:00,32.4,31.1,29.81,ENE,68,0.0,2.0,95,0.00,,,0.29,Wunderground v.1.15,2013-12-20 23:38:00,
2013-12-20 18:43:00,32.3,31.0,29.81,East,87,1.0,3.0,95,0.00,,,0.30,Wunderground v.1.15,2013-12-20 23:43:00,
2013-12-20 18:49:00,32.3,31.0,29.82,East,92,1.0,1.0,95,0.00,,,0.30,Wunderground v.1.15,2013-12-20 23:49:00,
2013-12-20 18:54:00,32.3,31.0,29.82,East,87,0.0,2.0,95,0.00,,,0.30,Wunderground v.1.15,2013-12-20 23:54:00,
2013-12-20 19:00:00,32.3,31.0,29.81,East,88,0.0,0.0,95,0.00,,,0.30,Wunderground v.1.15,2013-12-21 00:00:00,
2013-12-20 19:05:00,32.3,31.0,29.81,East,90,0.0,0.0,95,0.00,,,0.30,Wunderground v.1.15,2013-12-21 00:05:00,
2013-12-20 19:11:00,32.3,31.0,29.81,East,82,0.0,0.0,95,0.00,,,0.30,Wunderground v.1.15,2013-12-21 00:11:00,
2013-12-20 19:16:00,32.3,31.0,29.82,ENE,75,0.0,4.0,95,0.00,,,0.30,Wunderground v.1.15,2013-12-21 00:16:00,
2013-12-20 19:21:00,32.3,31.0,29.82,ESE,110,0.0,2.0,95,0.00,,,0.31,Wunderground v.1.15,2013-12-21 00:21:00,
2013-12-20 19:26:00,32.2,30.9,29.82,ESE,111,0.0,2.0,95,0.00,,,0.31,Wunderground v.1.15,2013-12-21 00:26:00,
2013-12-20 19:32:00,32.2,30.9,29.81,NE,51,1.0,3.0,95,0.00,,,0.31,Wunderground v.1.15,2013-12-21 00:32:00,
2013-12-20 19:38:00,32.2,30.9,29.82,ENE,61,1.0,3.0,95,0.00,,,0.31,Wunderground v.1.15,2013-12-21 00:38:00,
2013-12-20 19:43:00,32.2,30.9,29.82,ENE,63,0.0,1.0,95,0.00,,,0.31,Wunderground v.1.15,2013-12-21 00:43:00,
2013-12-20 19:49:00,32.2,30.9,29.83,ENE,62,0.0,0.0,95,0.00,,,0.31,Wunderground v.1.15,2013-12-21 00:49:00,
2013-12-20 19:54:00,32.2,30.9,29.83,ENE,62,0.0,2.0,95,0.00,,,0.31,Wunderground v.1.15,2013-12-21 00:54:00,
2013-12-20 20:00:00,32.3,31.0,29.82,ENE,60,1.0,1.0,95,0.00,,,0.31,Wunderground v.1.15,2013-12-21 01:00:00,
2013-12-20 20:05:00,32.3,31.0,29.82,ENE,61,1.0,1.0,95,0.00,,,0.31,Wunderground v.1.15,2013-12-21 01:05:00,
2013-12-20 20:11:00,32.2,30.9,29.82,ENE,61,0.0,2.0,95,0.00,,,0.31,Wunderground v.1.15,2013-12-21 01:11:00,
2013-12-20 20:16:00,32.2,30.9,29.82,ENE,62,0.0,2.0,95,0.00,,,0.31,Wunderground v.1.15,2013-12-21 01:16:00,
2013-12-20 20:22:00,32.2,30.9,29.81,ENE,62,0.0,1.0,95,0.00,,,0.31,Wunderground v.1.15,2013-12-21 01:22:00,
2013-12-20 20:28:00,32.2,30.9,29.82,ENE,61,0.0,1.0,95,0.00,,,0.31,Wunderground v.1.15,2013-12-21 01:28:00,
2013-12-20 20:33:00,32.2,30.9,29.80,ENE,63,0.0,0.0,95,0.00,,,0.31,Wunderground v.1.15,2013-12-21 01:33:00,
2013-12-20 20:39:00,32.2,30.9,29.80,ENE,62,0.0,0.0,95,0.00,,,0.31,Wunderground v.1.15,2013-12-21 01:39:00,
2013-12-20 20:44:00,32.1,30.8,29.80,ENE,65,0.0,2.0,95,0.00,,,0.31,Wunderground v.1.15,2013-12-21 01:44:00,
2013-12-20 20:50:00,32.1,30.8,29.81,ENE,66,0.0,0.0,95,0.00,,,0.31,Wunderground v.1.15,2013-12-21 01:50:00,
2013-12-20 20:55:00,32.1,30.8,29.82,ENE,67,0.0,1.0,95,0.00,,,0.31,Wunderground v.1.15,2013-12-21 01:55:00,
2013-12-20 21:01:00,32.1,30.8,29.81,ENE,68,0.0,0.0,95,0.00,,,0.31,Wunderground v.1.15,2013-12-21 02:01:00,
2013-12-20 21:06:00,32.1,30.8,29.80,ENE,74,0.0,3.0,95,0.00,,,0.31,Wunderground v.1.15,2013-12-21 02:06:00,
2013-12-20 21:12:00,32.1,30.8,29.81,ENE,74,0.0,0.0,95,0.00,,,0.31,Wunderground v.1.15,2013-12-21 02:12:00,
2013-12-20 21:18:00,32.1,30.8,29.81,ENE,75,0.0,0.0,95,0.00,,,0.31,Wunderground v.1.15,2013-12-21 02:18:00,
2013-12-20 21:24:00,32.1,30.8,29.80,ENE,74,0.0,0.0,95,0.00,,,0.31,Wunderground v.1.15,2013-12-21 02:24:00,
2013-12-20 21:29:00,32.1,30.8,29.80,ENE,74,0.0,0.0,95,0.00,,,0.31,Wunderground v.1.15,2013-12-21 02:29:00,
2013-12-20 21:34:00,32.1,30.8,29.80,ESE,103,1.0,2.0,95,0.00,,,0.32,Wunderground v.1.15,2013-12-21 02:34:00,
2013-12-20 21:40:00,32.2,30.9,29.79,ESE,103,0.0,0.0,95,0.10,,,0.33,Wunderground v.1.15,2013-12-21 02:40:00,
2013-12-20 21:46:00,32.2,30.9,29.79,ESE,103,0.0,1.0,95,0.05,,,0.33,Wunderground v.1.15,2013-12-21 02:46:00,
2013-12-20 21:52:00,32.2,30.9,29.80,ESE,102,0.0,0.0,95,0.04,,,0.34,Wunderground v.1.15,2013-12-21 02:52:00,
2013-12-20 21:58:00,32.2,30.9,29.80,ESE,102,0.0,1.0,95,0.04,,,0.34,Wunderground v.1.15,2013-12-21 02:58:00,
2013-12-20 22:03:00,32.2,30.9,29.80,ESE,102,0.0,0.0,95,0.04,,,0.34,Wunderground v.1.15,2013-12-21 03:03:00,
2013-12-20 22:09:00,32.2,30.9,29.79,ESE,102,0.0,0.0,95,0.00,,,0.34,Wunderground v.1.15,2013-12-21 03:09:00,
2013-12-20 22:14:00,32.2,30.9,29.79,ESE,102,0.0,0.0,95,0.00,,,0.34,Wunderground v.1.15,2013-12-21 03:14:00,
2013-12-20 22:20:00,32.2,30.9,29.80,ESE,102,0.0,0.0,95,0.00,,,0.34,Wunderground v.1.15,2013-12-21 03:20:00,
2013-12-20 22:25:00,32.2,30.9,29.79,ESE,102,0.0,0.0,95,0.00,,,0.34,Wunderground v.1.15,2013-12-21 03:25:00,
2013-12-20 22:31:00,32.2,30.9,29.78,ESE,102,0.0,0.0,95,0.00,,,0.34,Wunderground v.1.15,2013-12-21 03:31:00,
2013-12-20 22:38:00,32.2,30.9,29.78,ESE,102,0.0,1.0,95,0.00,,,0.34,Wunderground v.1.15,2013-12-21 03:38:00,
2013-12-20 22:43:00,32.3,31.0,29.79,East,101,0.0,2.0,95,0.00,,,0.34,Wunderground v.1.15,2013-12-21 03:43:00,
2013-12-20 22:48:00,32.3,31.0,29.79,East,101,0.0,2.0,95,0.00,,,0.34,Wunderground v.1.15,2013-12-21 03:48:00,
2013-12-20 22:53:00,32.3,31.0,29.79,East,101,0.0,0.0,95,0.00,,,0.34,Wunderground v.1.15,2013-12-21 03:53:00,
2013-12-20 22:59:00,32.3,31.0,29.79,East,83,0.0,0.0,95,0.00,,,0.00,Wunderground v.1.15,2013-12-21 03:59:00,
2013-12-20 23:04:00,32.3,31.0,29.79,East,83,0.0,0.0,95,0.00,,,0.00,Wunderground v.1.15,2013-12-21 04:04:00,
2013-12-20 23:10:00,32.3,31.0,29.78,East,83,0.0,0.0,95,0.00,,,0.00,Wunderground v.1.15,2013-12-21 04:10:00,
2013-12-20 23:15:00,32.3,31.0,29.78,East,83,0.0,0.0,95,0.00,,,0.00,Wunderground v.1.15,2013-12-21 04:15:00,
2013-12-20 23:21:00,32.2,30.9,29.78,East,82,0.0,2.0,95,0.00,,,0.00,Wunderground v.1.15,2013-12-21 04:21:00,
2013-12-20 23:26:00,32.2,30.9,29.77,East,82,0.0,2.0,95,0.00,,,0.00,Wunderground v.1.15,2013-12-21 04:26:00,
2013-12-20 23:32:00,32.2,30.9,29.77,East,82,0.0,0.0,95,0.00,,,0.00,Wunderground v.1.15,2013-12-21 04:32:00,
2013-12-20 23:38:00,32.2,30.9,29.77,East,82,0.0,0.0,95,0.00,,,0.00,Wunderground v.1.15,2013-12-21 04:38:00,
2013-12-20 23:43:00,32.2,30.9,29.77,East,82,0.0,0.0,95,0.00,,,0.00,Wunderground v.1.15,2013-12-21 04:43:00,
2013-12-20 23:49:00,32.2,30.9,29.77,East,83,0.0,0.0,95,0.00,,,0.00,Wunderground v.1.15,2013-12-21 04:49:00,
2013-12-20 23:54:00,32.2,30.9,29.77,East,83,0.0,2.0,95,0.00,,,0.00,Wunderground v.1.15,2013-12-21 04:54:00,